Time,TemperatureF,DewpointF,PressureIn,WindDirection,WindDirectionDegrees,WindSpeedMPH,WindSpeedGustMPH,Humidity,HourlyPrecipIn,Conditions,Clouds,dailyrainin,SolarRadiationWatts/m^2,SoftwareType,DateUTC
2013-01-21 00:00:00,25.0,16.3,30.11,WNW,298,0.0,6.0,69,0.00,,---,0.00,0.00,VWS V14.00,2013-01-21 05:00:00,
2013-01-21 00:02:00,25.0,15.9,30.11,WNW,298,0.0,0.0,68,0.00,,---,0.00,0.00,VWS V14.00,2013-01-21 05:02:00,
2013-01-21 00:03:00,25.0,15.9,30.11,WNW,298,0.0,0.0,68,0.00,,---,0.00,0.00,VWS V14.00,2013-01-21 05:03:00,
2013-01-21 00:04:00,25.0,15.9,30.11,WNW,298,0.0,0.0,68,0.00,,---,0.00,0.00,VWS V14.00,2013-01-21 05:04:00,
2013-01-21 00:09:00,24.9,15.9,30.11,West,278,0.0,4.0,68,0.00,,---,0.00,0.00,VWS V14.00,2013-01-21 05:09:00,
2013-01-21 00:14:00,24.9,16.2,30.11,West,278,1.0,4.0,69,0.00,,---,0.00,0.00,VWS V14.00,2013-01-21 05:14:00,
2013-01-21 00:19:00,24.8,16.1,30.11,West,279,0.0,4.0,69,0.00,,---,0.00,0.00,VWS V14.00,2013-01-21 05:19:00,
2013-01-21 00:24:00,24.9,16.2,30.10,West,279,0.0,4.0,69,0.00,,---,0.00,0.00,VWS V14.00,2013-01-21 05:24:00,
2013-01-21 00:29:00,24.9,16.2,30.10,West,279,1.0,4.0,69,0.00,,---,0.00,0.00,VWS V14.00,2013-01-21 05:29:00,
2013-01-21 00:30:00,24.9,15.9,30.10,West,279,1.0,4.0,68,0.00,,---,0.00,0.00,VWS V14.00,2013-01-21 05:30:00,
2013-01-21 00:34:00,24.9,16.2,30.10,West,279,0.0,4.0,69,0.00,,---,0.00,0.00,VWS V14.00,2013-01-21 05:34:00,
2013-01-21 00:39:00,24.9,16.2,30.10,West,264,2.0,5.0,69,0.00,,---,0.00,0.00,VWS V14.00,2013-01-21 05:39:00,
2013-01-21 00:44:00,24.8,16.1,30.09,West,272,4.0,5.0,69,0.00,,---,0.00,0.00,VWS V14.00,2013-01-21 05:44:00,
2013-01-21 00:49:00,24.8,15.8,30.09,West,277,2.0,6.0,68,0.00,,---,0.00,0.00,VWS V14.00,2013-01-21 05:49:00,
2013-01-21 00:54:00,24.7,15.7,30.09,West,267,1.0,6.0,68,0.00,,---,0.00,0.00,VWS V14.00,2013-01-21 05:54:00,
2013-01-21 00:59:00,24.5,15.5,30.09,West,267,1.0,6.0,68,0.00,,---,0.00,0.00,VWS V14.00,2013-01-21 05:59:00,
2013-01-21 01:00:00,24.5,15.5,30.09,West,267,0.0,6.0,68,0.00,,---,0.00,0.00,VWS V14.00,2013-01-21 06:00:00,
2013-01-21 01:04:00,24.2,15.2,30.09,West,267,0.0,1.0,68,0.00,,---,0.00,0.00,VWS V14.00,2013-01-21 06:04:00,
2013-01-21 01:09:00,23.8,15.1,30.09,West,267,0.0,1.0,69,0.00,,---,0.00,0.00,VWS V14.00,2013-01-21 06:09:00,
2013-01-21 01:14:00,23.5,15.2,30.09,West,267,0.0,1.0,70,0.00,,---,0.00,0.00,VWS V14.00,2013-01-21 06:14:00,
2013-01-21 01:19:00,23.3,15.0,30.09,West,267,1.0,1.0,70,0.00,,---,0.00,0.00,VWS V14.00,2013-01-21 06:19:00,
2013-01-21 01:24:00,23.1,15.1,30.09,West,267,1.0,1.0,71,0.00,,---,0.00,0.00,VWS V14.00,2013-01-21 06:24:00,
2013-01-21 01:29:00,22.9,15.2,30.09,West,267,0.0,2.0,72,0.00,,---,0.00,0.00,VWS V14.00,2013-01-21 06:29:00,
2013-01-21 01:30:00,22.9,15.2,30.09,West,267,0.0,2.0,72,0.00,,---,0.00,0.00,VWS V14.00,2013-01-21 06:30:00,
2013-01-21 01:34:00,22.9,15.6,30.09,West,267,0.0,2.0,73,0.00,,---,0.00,0.00,VWS V14.00,2013-01-21 06:34:00,
2013-01-21 01:39:00,23.1,15.8,30.09,West,267,1.0,4.0,73,0.00,,---,0.00,0.00,VWS V14.00,2013-01-21 06:39:00,
2013-01-21 01:44:00,23.4,16.4,30.10,West,267,0.0,4.0,74,0.00,,---,0.00,0.00,VWS V14.00,2013-01-21 06:44:00,
2013-01-21 01:50:00,23.6,16.2,30.10,West,267,1.0,4.0,73,0.00,,---,0.00,0.00,VWS V14.00,2013-01-21 06:50:00,
2013-01-21 01:55:00,23.9,16.2,30.10,West,263,2.0,4.0,72,0.00,,---,0.00,0.00,VWS V14.00,2013-01-21 06:55:00,
2013-01-21 02:00:00,24.1,16.4,30.09,West,263,0.0,4.0,72,0.00,,---,0.00,0.00,VWS V14.00,2013-01-21 07:00:00,
2013-01-21 02:05:00,24.2,16.2,30.09,West,265,3.0,3.0,71,0.00,,---,0.00,0.00,VWS V14.00,2013-01-21 07:05:00,
2013-01-21 02:10:00,24.1,16.1,30.09,West,271,2.0,4.0,71,0.00,,---,0.00,0.00,VWS V14.00,2013-01-21 07:10:00,
2013-01-21 02:15:00,24.1,15.8,30.09,West,273,4.0,5.0,70,0.00,,---,0.00,0.00,VWS V14.00,2013-01-21 07:15:00,
2013-01-21 02:20:00,24.1,15.1,30.09,West,273,4.0,7.0,68,0.00,,---,0.00,0.00,VWS V14.00,2013-01-21 07:20:00,
2013-01-21 02:25:00,24.1,14.7,30.09,West,281,5.0,7.0,67,0.00,,---,0.00,0.00,VWS V14.00,2013-01-21 07:25:00,
2013-01-21 02:30:00,24.2,14.8,30.09,WNW,301,4.0,7.0,67,0.00,,---,0.00,0.00,VWS V14.00,2013-01-21 07:30:00,
2013-01-21 02:35:00,24.0,15.0,30.09,WNW,295,1.0,4.0,68,0.00,,---,0.00,0.00,VWS V14.00,2013-01-21 07:35:00,
2013-01-21 02:40:00,24.0,15.0,30.09,WNW,288,0.0,5.0,68,0.00,,---,0.00,0.00,VWS V14.00,2013-01-21 07:40:00,
2013-01-21 02:45:00,23.9,14.9,30.09,WNW,288,0.0,5.0,68,0.00,,---,0.00,0.00,VWS V14.00,2013-01-21 07:45:00,
2013-01-21 02:50:00,23.7,15.0,30.09,WNW,288,0.0,5.0,69,0.00,,---,0.00,0.00,VWS V14.00,2013-01-21 07:50:00,
2013-01-21 02:55:00,23.7,15.0,30.09,WNW,288,0.0,5.0,69,0.00,,---,0.00,0.00,VWS V14.00,2013-01-21 07:55:00,
2013-01-21 03:00:00,23.7,15.4,30.09,WNW,288,0.0,5.0,70,0.00,,---,0.00,0.00,VWS V14.00,2013-01-21 08:00:00,
2013-01-21 03:05:00,23.7,15.4,30.09,WNW,288,0.0,1.0,70,0.00,,---,0.00,0.00,VWS V14.00,2013-01-21 08:05:00,
2013-01-21 03:10:00,23.8,15.5,30.09,WNW,288,0.0,1.0,70,0.00,,---,0.00,0.00,VWS V14.00,2013-01-21 08:10:00,
2013-01-21 03:15:00,23.8,15.8,30.09,WNW,288,0.0,1.0,71,0.00,,---,0.00,0.00,VWS V14.00,2013-01-21 08:15:00,
2013-01-21 03:20:00,23.9,16.2,30.08,WNW,288,0.0,1.0,72,0.00,,---,0.00,0.00,VWS V14.00,2013-01-21 08:20:00,
2013-01-21 03:25:00,24.0,16.0,30.09,WNW,288,0.0,1.0,71,0.00,,---,0.00,0.00,VWS V14.00,2013-01-21 08:25:00,
2013-01-21 03:30:00,24.0,16.3,30.08,WNW,288,0.0,2.0,72,0.00,,---,0.00,0.00,VWS V14.00,2013-01-21 08:30:00,
2013-01-21 03:35:00,24.1,15.8,30.08,West,271,4.0,4.0,70,0.00,,---,0.00,0.00,VWS V14.00,2013-01-21 08:35:00,
2013-01-21 03:40:00,24.2,16.2,30.08,West,269,3.0,5.0,71,0.00,,---,0.00,0.00,VWS V14.00,2013-01-21 08:40:00,
2013-01-21 03:45:00,24.3,15.6,30.08,West,265,1.0,5.0,69,0.00,,---,0.00,0.00,VWS V14.00,2013-01-21 08:45:00,
2013-01-21 03:50:00,24.3,15.6,30.08,WSW,252,4.0,5.0,69,0.00,,---,0.00,0.00,VWS V14.00,2013-01-21 08:50:00,
2013-01-21 03:55:00,24.4,15.4,30.08,WSW,257,4.0,6.0,68,0.00,,---,0.00,0.00,VWS V14.00,2013-01-21 08:55:00,
2013-01-21 04:00:00,24.5,15.5,30.08,WSW,256,0.0,6.0,68,0.00,,---,0.00,0.00,VWS V14.00,2013-01-21 09:00:00,
2013-01-21 04:05:00,24.5,15.8,30.08,West,275,2.0,6.0,69,0.00,,---,0.00,0.00,VWS V14.00,2013-01-21 09:05:00,
2013-01-21 04:10:00,24.5,15.5,30.08,West,274,1.0,6.0,68,0.00,,---,0.00,0.00,VWS V14.00,2013-01-21 09:10:00,
2013-01-21 04:15:00,24.4,15.4,30.07,WSW,237,1.0,6.0,68,0.00,,---,0.00,0.00,VWS V14.00,2013-01-21 09:15:00,
2013-01-21 04:20:00,24.3,15.6,30.07,WSW,248,1.0,6.0,69,0.00,,---,0.00,0.00,VWS V14.00,2013-01-21 09:20:00,
2013-01-21 04:26:00,24.3,15.6,30.07,WSW,248,2.0,6.0,69,0.00,,---,0.00,0.00,VWS V14.00,2013-01-21 09:26:00,
2013-01-21 04:30:00,24.2,15.5,30.07,West,271,2.0,7.0,69,0.00,,---,0.00,0.00,VWS V14.00,2013-01-21 09:30:00,
2013-01-21 04:31:00,24.2,15.5,30.07,West,272,5.0,7.0,69,0.00,,---,0.00,0.00,VWS V14.00,2013-01-21 09:31:00,
2013-01-21 04:36:00,24.2,15.8,30.07,West,267,0.0,4.0,70,0.00,,---,0.00,0.00,VWS V14.00,2013-01-21 09:36:00,
2013-01-21 04:41:00,24.2,15.5,30.07,WSW,257,3.0,5.0,69,0.00,,---,0.00,0.00,VWS V14.00,2013-01-21 09:41:00,
2013-01-21 04:46:00,24.2,15.8,30.06,West,269,0.0,5.0,70,0.00,,---,0.00,0.00,VWS V14.00,2013-01-21 09:46:00,
2013-01-21 04:51:00,24.2,15.5,30.06,West,262,3.0,6.0,69,0.00,,---,0.00,0.00,VWS V14.00,2013-01-21 09:51:00,
2013-01-21 04:56:00,24.2,15.5,30.06,WSW,252,1.0,6.0,69,0.00,,---,0.00,0.00,VWS V14.00,2013-01-21 09:56:00,
2013-01-21 05:00:00,24.2,15.5,30.06,SSW,204,0.0,7.0,69,0.00,,---,0.00,0.00,VWS V14.00,2013-01-21 10:00:00,
2013-01-21 05:01:00,24.2,15.5,30.06,SSW,204,0.0,7.0,69,0.00,,---,0.00,0.00,VWS V14.00,2013-01-21 10:01:00,
2013-01-21 05:06:00,24.1,15.8,30.06,WSW,242,4.0,4.0,70,0.00,,---,0.00,0.00,VWS V14.00,2013-01-21 10:06:00,
2013-01-21 05:11:00,24.0,16.0,30.05,WSW,257,1.0,5.0,71,0.00,,---,0.00,0.00,VWS V14.00,2013-01-21 10:11:00,
2013-01-21 05:16:00,23.9,16.2,30.05,West,265,1.0,6.0,72,0.00,,---,0.00,0.00,VWS V14.00,2013-01-21 10:16:00,
2013-01-21 05:21:00,23.9,16.2,30.05,West,263,0.0,6.0,72,0.00,,---,0.00,0.00,VWS V14.00,2013-01-21 10:21:00,
2013-01-21 05:26:00,23.8,16.4,30.06,West,263,0.0,6.0,73,0.00,,---,0.00,0.00,VWS V14.00,2013-01-21 10:26:00,
2013-01-21 05:30:00,23.8,16.7,30.06,West,263,0.0,6.0,74,0.00,,---,0.00,0.00,VWS V14.00,2013-01-21 10:30:00,
2013-01-21 05:31:00,23.8,16.7,30.06,West,263,0.0,6.0,74,0.00,,---,0.00,0.00,VWS V14.00,2013-01-21 10:31:00,
2013-01-21 05:36:00,23.8,16.7,30.06,West,262,0.0,2.0,74,0.00,,---,0.00,0.00,VWS V14.00,2013-01-21 10:36:00,
2013-01-21 05:41:00,23.8,17.0,30.05,West,261,0.0,2.0,75,0.00,,---,0.00,0.00,VWS V14.00,2013-01-21 10:41:00,
2013-01-21 05:46:00,23.8,17.4,30.05,West,259,2.0,4.0,76,0.00,,---,0.00,0.00,VWS V14.00,2013-01-21 10:46:00,
2013-01-21 05:51:00,23.8,17.7,30.05,SW,233,0.0,4.0,77,0.00,,---,0.00,0.00,VWS V14.00,2013-01-21 10:51:00,
2013-01-21 05:56:00,23.8,18.0,30.05,SW,232,0.0,4.0,78,0.00,,---,0.00,0.00,VWS V14.00,2013-01-21 10:56:00,
2013-01-21 06:00:00,23.8,18.2,30.05,SW,219,0.0,5.0,79,0.00,,---,0.00,0.00,VWS V14.00,2013-01-21 11:00:00,
2013-01-21 06:02:00,23.8,18.2,30.05,SW,219,0.0,0.0,79,0.00,,---,0.00,0.00,VWS V14.00,2013-01-21 11:02:00,
2013-01-21 06:07:00,23.8,18.0,30.05,SSE,167,0.0,4.0,78,0.00,,---,0.00,0.00,VWS V14.00,2013-01-21 11:07:00,
2013-01-21 06:12:00,23.8,18.0,30.05,West,267,3.0,7.0,78,0.00,,---,0.00,0.00,VWS V14.00,2013-01-21 11:12:00,
2013-01-21 06:17:00,23.8,18.2,30.05,WSW,250,0.0,7.0,79,0.00,,---,0.00,0.00,VWS V14.00,2013-01-21 11:17:00,
2013-01-21 06:22:00,23.8,18.0,30.05,WSW,256,0.0,7.0,78,0.00,,---,0.00,0.00,VWS V14.00,2013-01-21 11:22:00,
2013-01-21 06:27:00,23.8,18.0,30.05,WSW,256,0.0,7.0,78,0.00,,---,0.00,0.00,VWS V14.00,2013-01-21 11:27:00,
2013-01-21 06:30:00,23.8,18.0,30.05,WSW,250,2.0,7.0,78,0.00,,---,0.00,0.00,VWS V14.00,2013-01-21 11:30:00,
2013-01-21 06:32:00,23.8,18.0,30.05,West,260,3.0,4.0,78,0.00,,---,0.00,0.00,VWS V14.00,2013-01-21 11:32:00,
2013-01-21 06:37:00,23.9,17.8,30.05,WSW,254,3.0,8.0,77,0.00,,---,0.00,0.00,VWS V14.00,2013-01-21 11:37:00,
2013-01-21 06:42:00,23.9,18.0,30.05,West,261,2.0,8.0,78,0.00,,---,0.00,0.00,VWS V14.00,2013-01-21 11:42:00,
2013-01-21 06:47:00,23.9,17.8,30.05,SW,226,1.0,8.0,77,0.00,,---,0.00,0.00,VWS V14.00,2013-01-21 11:47:00,
2013-01-21 06:52:00,23.9,17.8,30.05,WSW,254,4.0,8.0,77,0.00,,---,0.00,0.00,VWS V14.00,2013-01-21 11:52:00,
2013-01-21 06:57:00,23.9,18.0,30.05,WSW,248,0.0,8.0,78,0.00,,---,0.00,0.00,VWS V14.00,2013-01-21 11:57:00,
2013-01-21 07:00:00,23.9,18.0,30.05,WSW,238,2.0,8.0,78,0.00,,---,0.00,0.00,VWS V14.00,2013-01-21 12:00:00,
2013-01-21 07:02:00,23.9,18.0,30.04,West,265,3.0,5.0,78,0.00,,---,0.00,0.00,VWS V14.00,2013-01-21 12:02:00,
2013-01-21 07:07:00,23.9,18.0,30.05,WSW,255,1.0,8.0,78,0.00,,---,0.00,0.00,VWS V14.00,2013-01-21 12:07:00,
2013-01-21 07:12:00,23.9,18.0,30.05,West,259,2.0,8.0,78,0.00,,---,0.00,0.00,VWS V14.00,2013-01-21 12:12:00,
2013-01-21 07:17:00,23.9,18.0,30.05,WSW,251,0.0,8.0,78,0.00,,---,0.00,0.00,VWS V14.00,2013-01-21 12:17:00,
2013-01-21 07:22:00,23.9,18.0,30.05,WSW,254,4.0,8.0,78,0.00,,---,0.00,0.00,VWS V14.00,2013-01-21 12:22:00,
2013-01-21 07:27:00,23.9,18.0,30.05,WSW,250,1.0,8.0,78,0.00,,---,0.00,0.00,VWS V14.00,2013-01-21 12:27:00,
2013-01-21 07:30:00,23.9,18.0,30.05,WSW,240,2.0,8.0,78,0.00,,---,0.00,0.00,VWS V14.00,2013-01-21 12:30:00,
2013-01-21 07:32:00,23.9,18.0,30.05,West,259,1.0,4.0,78,0.00,,---,0.00,0.00,VWS V14.00,2013-01-21 12:32:00,
2013-01-21 07:37:00,24.0,17.9,30.05,West,265,0.0,7.0,77,0.00,,---,0.00,0.00,VWS V14.00,2013-01-21 12:37:00,
2013-01-21 07:43:00,24.0,17.9,30.04,West,261,2.0,7.0,77,0.00,,---,0.00,0.00,VWS V14.00,2013-01-21 12:43:00,
2013-01-21 07:48:00,24.0,17.9,30.05,WSW,258,0.0,7.0,77,0.00,,---,0.00,0.00,VWS V14.00,2013-01-21 12:48:00,
2013-01-21 07:53:00,24.0,17.9,30.05,WSW,257,2.0,7.0,77,0.00,,---,0.00,7.00,VWS V14.00,2013-01-21 12:53:00,
2013-01-21 07:58:00,24.1,18.0,30.05,West,259,0.0,7.0,77,0.00,,---,0.00,7.00,VWS V14.00,2013-01-21 12:58:00,
2013-01-21 08:00:00,24.1,18.0,30.05,West,259,0.0,7.0,77,0.00,,---,0.00,9.00,VWS V14.00,2013-01-21 13:00:00,
2013-01-21 08:03:00,24.1,18.0,30.04,West,259,0.0,2.0,77,0.00,,---,0.00,9.00,VWS V14.00,2013-01-21 13:03:00,
2013-01-21 08:08:00,24.1,18.0,30.04,West,259,0.0,2.0,77,0.00,,---,0.00,12.00,VWS V14.00,2013-01-21 13:08:00,
2013-01-21 08:13:00,24.2,18.0,30.04,West,259,0.0,2.0,77,0.00,,---,0.00,12.00,VWS V14.00,2013-01-21 13:13:00,
2013-01-21 08:18:00,24.2,18.0,30.04,West,259,0.0,2.0,77,0.00,,---,0.00,18.00,VWS V14.00,2013-01-21 13:18:00,
2013-01-21 08:23:00,24.3,18.1,30.04,SSW,206,0.0,2.0,77,0.00,,---,0.00,28.00,VWS V14.00,2013-01-21 13:23:00,
2013-01-21 08:28:00,24.4,17.9,30.03,WSW,250,0.0,2.0,76,0.00,,---,0.00,33.00,VWS V14.00,2013-01-21 13:28:00,
2013-01-21 08:30:00,24.4,17.9,30.03,WSW,250,0.0,2.0,76,0.00,,---,0.00,30.00,VWS V14.00,2013-01-21 13:30:00,
2013-01-21 08:33:00,24.4,17.9,30.03,WSW,251,3.0,3.0,76,0.00,,---,0.00,30.00,VWS V14.00,2013-01-21 13:33:00,
2013-01-21 08:38:00,24.5,18.0,30.04,WSW,250,0.0,3.0,76,0.00,,---,0.00,40.00,VWS V14.00,2013-01-21 13:38:00,
2013-01-21 08:43:00,24.5,18.0,30.03,South,183,0.0,3.0,76,0.00,,---,0.00,49.00,VWS V14.00,2013-01-21 13:43:00,
2013-01-21 08:48:00,24.7,17.9,30.03,West,263,0.0,3.0,75,0.00,,---,0.00,60.00,VWS V14.00,2013-01-21 13:48:00,
2013-01-21 08:53:00,24.7,17.9,30.03,West,263,1.0,3.0,75,0.00,,---,0.00,47.00,VWS V14.00,2013-01-21 13:53:00,
2013-01-21 08:58:00,24.8,18.0,30.03,SSW,208,0.0,3.0,75,0.00,,---,0.00,58.00,VWS V14.00,2013-01-21 13:58:00,
2013-01-21 09:00:00,24.9,18.1,30.03,SSW,208,0.0,5.0,75,0.00,,---,0.00,72.00,VWS V14.00,2013-01-21 14:00:00,
2013-01-21 09:03:00,24.9,17.8,30.03,WSW,246,2.0,4.0,74,0.00,,---,0.00,79.00,VWS V14.00,2013-01-21 14:03:00,
2013-01-21 09:08:00,25.0,17.9,30.03,WSW,239,3.0,4.0,74,0.00,,---,0.00,95.00,VWS V14.00,2013-01-21 14:08:00,
2013-01-21 09:13:00,25.2,18.1,30.02,WSW,240,0.0,4.0,74,0.00,,---,0.00,97.00,VWS V14.00,2013-01-21 14:13:00,
2013-01-21 09:18:00,25.3,18.2,30.03,SW,214,0.0,4.0,74,0.00,,---,0.00,113.00,VWS V14.00,2013-01-21 14:18:00,
2013-01-21 09:23:00,25.5,18.4,30.03,WSW,245,0.0,5.0,74,0.00,,---,0.00,135.00,VWS V14.00,2013-01-21 14:23:00,
2013-01-21 09:28:00,25.7,18.3,30.02,West,263,0.0,5.0,73,0.00,,---,0.00,149.00,VWS V14.00,2013-01-21 14:28:00,
2013-01-21 09:30:00,25.8,18.4,30.02,West,260,4.0,5.0,73,0.00,,---,0.00,167.00,VWS V14.00,2013-01-21 14:30:00,
2013-01-21 09:33:00,25.8,18.0,30.02,WSW,257,0.0,5.0,72,0.00,,---,0.00,130.00,VWS V14.00,2013-01-21 14:33:00,
2013-01-21 09:38:00,25.9,18.1,30.02,WSW,240,2.0,5.0,72,0.00,,---,0.00,141.00,VWS V14.00,2013-01-21 14:38:00,
2013-01-21 09:43:00,26.1,18.0,30.02,SW,215,1.0,7.0,71,0.00,,---,0.00,146.00,VWS V14.00,2013-01-21 14:43:00,
2013-01-21 09:48:00,26.3,18.2,30.03,WSW,244,1.0,7.0,71,0.00,,---,0.00,109.00,VWS V14.00,2013-01-21 14:48:00,
2013-01-21 09:53:00,26.4,18.3,30.02,SW,227,0.0,7.0,71,0.00,,---,0.00,125.00,VWS V14.00,2013-01-21 14:53:00,
2013-01-21 09:58:00,26.7,18.2,30.02,WSW,242,2.0,7.0,70,0.00,,---,0.00,139.00,VWS V14.00,2013-01-21 14:58:00,
2013-01-21 10:00:00,26.9,18.1,30.02,SSE,152,1.0,7.0,69,0.00,,---,0.00,142.00,VWS V14.00,2013-01-21 15:00:00,
2013-01-21 10:03:00,27.0,18.2,30.02,West,269,2.0,6.0,69,0.00,,---,0.00,151.00,VWS V14.00,2013-01-21 15:03:00,
2013-01-21 10:08:00,27.2,17.7,30.02,SW,214,3.0,7.0,67,0.00,,---,0.00,130.00,VWS V14.00,2013-01-21 15:08:00,
2013-01-21 10:14:00,27.3,17.5,30.01,SSW,196,0.0,7.0,66,0.00,,---,0.00,142.00,VWS V14.00,2013-01-21 15:14:00,
2013-01-21 10:19:00,27.4,17.5,30.01,WSW,256,0.0,8.0,66,0.00,,---,0.00,142.00,VWS V14.00,2013-01-21 15:19:00,
2013-01-21 10:24:00,27.5,17.6,30.01,SW,219,2.0,8.0,66,0.00,,---,0.00,132.00,VWS V14.00,2013-01-21 15:24:00,
2013-01-21 10:29:00,27.7,17.5,30.01,West,260,3.0,8.0,65,0.00,,---,0.00,132.00,VWS V14.00,2013-01-21 15:29:00,
2013-01-21 10:30:00,27.7,17.1,30.01,WSW,244,0.0,14.0,64,0.00,,---,0.00,135.00,VWS V14.00,2013-01-21 15:30:00,
2013-01-21 10:34:00,27.8,16.9,30.01,West,264,10.0,10.0,63,0.00,,---,0.00,137.00,VWS V14.00,2013-01-21 15:34:00,
2013-01-21 10:39:00,27.9,17.0,30.00,WSW,245,1.0,10.0,63,0.00,,---,0.00,141.00,VWS V14.00,2013-01-21 15:39:00,
2013-01-21 10:44:00,28.0,16.3,30.00,SW,229,5.0,12.0,61,0.00,,---,0.00,148.00,VWS V14.00,2013-01-21 15:44:00,
2013-01-21 10:49:00,28.1,16.4,29.99,WSW,247,6.0,12.0,61,0.00,,---,0.00,167.00,VWS V14.00,2013-01-21 15:49:00,
2013-01-21 10:54:00,28.4,17.1,29.99,WSW,242,2.0,12.0,62,0.00,,---,0.00,163.00,VWS V14.00,2013-01-21 15:54:00,
2013-01-21 10:59:00,28.5,16.8,29.99,West,263,4.0,12.0,61,0.00,,---,0.00,137.00,VWS V14.00,2013-01-21 15:59:00,
2013-01-21 11:00:00,28.6,16.9,29.99,WSW,255,6.0,12.0,61,0.00,,---,0.00,130.00,VWS V14.00,2013-01-21 16:00:00,
2013-01-21 11:04:00,28.7,17.0,29.99,WNW,284,11.0,12.0,61,0.00,,---,0.00,134.00,VWS V14.00,2013-01-21 16:04:00,
2013-01-21 11:09:00,28.5,16.0,29.99,WSW,250,8.0,15.0,59,0.00,,---,0.00,149.00,VWS V14.00,2013-01-21 16:09:00,
2013-01-21 11:14:00,28.5,16.0,29.99,West,267,11.0,15.0,59,0.00,,---,0.00,135.00,VWS V14.00,2013-01-21 16:14:00,
2013-01-21 11:19:00,28.5,16.0,29.98,West,274,7.0,15.0,59,0.00,,---,0.00,134.00,VWS V14.00,2013-01-21 16:19:00,
2013-01-21 11:24:00,28.5,16.4,29.98,WSW,254,4.0,15.0,60,0.00,,---,0.00,162.00,VWS V14.00,2013-01-21 16:24:00,
2013-01-21 11:29:00,28.7,17.0,29.98,West,264,6.0,15.0,61,0.00,,---,0.00,141.00,VWS V14.00,2013-01-21 16:29:00,
2013-01-21 11:30:00,28.8,16.7,29.97,West,269,4.0,15.0,60,0.00,,---,0.00,146.00,VWS V14.00,2013-01-21 16:30:00,
2013-01-21 11:34:00,28.9,16.4,29.97,WSW,248,4.0,7.0,59,0.00,,---,0.00,142.00,VWS V14.00,2013-01-21 16:34:00,
2013-01-21 11:39:00,28.9,16.8,29.97,West,273,9.0,10.0,60,0.00,,---,0.00,142.00,VWS V14.00,2013-01-21 16:39:00,
2013-01-21 11:44:00,28.9,16.4,29.96,West,262,6.0,13.0,59,0.00,,---,0.00,158.00,VWS V14.00,2013-01-21 16:44:00,
2013-01-21 11:49:00,28.8,16.3,29.95,West,265,6.0,13.0,59,0.00,,---,0.00,178.00,VWS V14.00,2013-01-21 16:49:00,
2013-01-21 11:54:00,29.0,16.9,29.95,WSW,250,2.0,13.0,60,0.00,,---,0.00,158.00,VWS V14.00,2013-01-21 16:54:00,
2013-01-21 11:59:00,29.2,17.4,29.95,West,275,6.0,13.0,61,0.00,,---,0.00,172.00,VWS V14.00,2013-01-21 16:59:00,
2013-01-21 12:00:00,29.1,17.3,29.95,WSW,239,4.0,13.0,61,0.00,,---,0.00,160.00,VWS V14.00,2013-01-21 17:00:00,
2013-01-21 12:04:00,29.0,17.2,29.94,WNW,290,4.0,8.0,61,0.00,,---,0.00,135.00,VWS V14.00,2013-01-21 17:04:00,
2013-01-21 12:09:00,28.9,17.2,29.94,West,267,10.0,13.0,61,0.00,,---,0.00,120.00,VWS V14.00,2013-01-21 17:09:00,
2013-01-21 12:14:00,28.8,17.1,29.94,West,269,5.0,13.0,61,0.00,,---,0.00,120.00,VWS V14.00,2013-01-21 17:14:00,
2013-01-21 12:19:00,28.7,17.0,29.94,West,259,12.0,15.0,61,0.00,,---,0.00,114.00,VWS V14.00,2013-01-21 17:19:00,
2013-01-21 12:24:00,28.4,17.1,29.93,West,262,10.0,16.0,62,0.00,,---,0.00,137.00,VWS V14.00,2013-01-21 17:24:00,
2013-01-21 12:29:00,28.5,17.1,29.93,West,267,11.0,16.0,62,0.00,,---,0.00,128.00,VWS V14.00,2013-01-21 17:29:00,
2013-01-21 12:30:00,28.5,16.8,29.93,WSW,246,8.0,16.0,61,0.00,,---,0.00,134.00,VWS V14.00,2013-01-21 17:30:00,
2013-01-21 12:34:00,28.5,17.1,29.93,West,272,11.0,14.0,62,0.00,,---,0.00,121.00,VWS V14.00,2013-01-21 17:34:00,
2013-01-21 12:39:00,28.5,17.1,29.93,WSW,253,7.0,14.0,62,0.00,,---,0.00,120.00,VWS V14.00,2013-01-21 17:39:00,
2013-01-21 12:44:00,28.5,17.5,29.93,WSW,252,10.0,14.0,63,0.00,,---,0.00,118.00,VWS V14.00,2013-01-21 17:44:00,
2013-01-21 12:49:00,28.6,17.6,29.93,West,261,8.0,14.0,63,0.00,,---,0.00,120.00,VWS V14.00,2013-01-21 17:49:00,
2013-01-21 12:55:00,28.5,17.1,29.92,West,279,13.0,16.0,62,0.00,,---,0.00,111.00,VWS V14.00,2013-01-21 17:55:00,
2013-01-21 13:00:00,28.3,17.3,29.92,West,263,12.0,19.0,63,0.00,,---,0.00,88.00,VWS V14.00,2013-01-21 18:00:00,
2013-01-21 13:05:00,28.2,17.2,29.92,West,267,8.0,14.0,63,0.00,,---,0.00,81.00,VWS V14.00,2013-01-21 18:05:00,
2013-01-21 13:10:00,28.1,17.5,29.92,West,281,8.0,16.0,64,0.00,,---,0.00,79.00,VWS V14.00,2013-01-21 18:10:00,
2013-01-21 13:15:00,28.1,17.9,29.93,WNW,294,7.0,16.0,65,0.00,,---,0.00,84.00,VWS V14.00,2013-01-21 18:15:00,
2013-01-21 13:20:00,28.2,18.0,29.93,WNW,282,9.0,16.0,65,0.00,,---,0.00,91.00,VWS V14.00,2013-01-21 18:20:00,
2013-01-21 13:25:00,28.1,17.9,29.93,West,275,7.0,16.0,65,0.00,,---,0.00,88.00,VWS V14.00,2013-01-21 18:25:00,
2013-01-21 13:30:00,28.0,18.1,29.93,WNW,284,13.0,16.0,66,0.00,,---,0.00,123.00,VWS V14.00,2013-01-21 18:30:00,
2013-01-21 13:35:00,27.8,18.3,29.93,West,271,15.0,18.0,67,0.00,,---,0.00,107.00,VWS V14.00,2013-01-21 18:35:00,
2013-01-21 13:40:00,27.4,18.6,29.93,West,277,12.0,19.0,69,0.00,,---,0.00,120.00,VWS V14.00,2013-01-21 18:40:00,
2013-01-21 13:45:00,27.2,19.1,29.93,West,268,13.0,19.0,71,0.00,,---,0.00,109.00,VWS V14.00,2013-01-21 18:45:00,
2013-01-21 13:50:00,26.8,19.3,29.93,WNW,284,11.0,19.0,73,0.00,,---,0.00,130.00,VWS V14.00,2013-01-21 18:50:00,
2013-01-21 13:55:00,26.7,19.9,29.94,West,273,11.0,19.0,75,0.00,,---,0.00,134.00,VWS V14.00,2013-01-21 18:55:00,
2013-01-21 14:00:00,26.5,20.3,29.93,West,271,12.0,19.0,77,0.00,,---,0.00,151.00,VWS V14.00,2013-01-21 19:00:00,
2013-01-21 14:05:00,25.9,20.9,29.93,West,264,11.0,14.0,81,0.00,,---,0.00,120.00,VWS V14.00,2013-01-21 19:05:00,
2013-01-21 14:10:00,25.5,20.5,29.94,West,280,12.0,20.0,81,0.00,,---,0.00,121.00,VWS V14.00,2013-01-21 19:10:00,
2013-01-21 14:15:00,25.3,20.9,29.94,West,262,8.0,20.0,83,0.00,,---,0.00,135.00,VWS V14.00,2013-01-21 19:15:00,
2013-01-21 14:20:00,25.2,21.0,29.94,West,281,7.0,20.0,84,0.00,,---,0.00,153.00,VWS V14.00,2013-01-21 19:20:00,
2013-01-21 14:25:00,25.3,21.1,29.94,West,281,7.0,20.0,84,0.00,,---,0.00,165.00,VWS V14.00,2013-01-21 19:25:00,
2013-01-21 14:30:00,25.5,21.6,29.94,West,259,3.0,20.0,85,0.00,,---,0.00,186.00,VWS V14.00,2013-01-21 19:30:00,
2013-01-21 14:35:00,25.6,21.7,29.95,SW,232,7.0,10.0,85,0.00,,---,0.00,244.00,VWS V14.00,2013-01-21 19:35:00,
2013-01-21 14:40:00,26.0,22.1,29.94,West,267,8.0,11.0,85,0.00,,---,0.00,213.00,VWS V14.00,2013-01-21 19:40:00,
2013-01-21 14:45:00,26.2,21.8,29.95,West,277,5.0,13.0,83,0.00,,---,0.00,160.00,VWS V14.00,2013-01-21 19:45:00,
2013-01-21 14:50:00,26.1,20.5,29.95,West,262,14.0,17.0,79,0.00,,---,0.00,114.00,VWS V14.00,2013-01-21 19:50:00,
2013-01-21 14:55:00,25.9,19.7,29.95,WSW,257,17.0,20.0,77,0.00,,---,0.00,127.00,VWS V14.00,2013-01-21 19:55:00,
2013-01-21 15:00:00,26.0,19.8,29.95,WSW,247,18.0,20.0,77,0.00,,---,0.00,209.00,VWS V14.00,2013-01-21 20:00:00,
2013-01-21 15:05:00,26.1,19.3,29.95,West,269,15.0,20.0,75,0.00,,---,0.00,169.00,VWS V14.00,2013-01-21 20:05:00,
2013-01-21 15:10:00,26.3,19.5,29.95,West,259,11.0,21.0,75,0.00,,---,0.00,179.00,VWS V14.00,2013-01-21 20:10:00,
2013-01-21 15:15:00,26.4,19.2,29.95,West,270,8.0,21.0,74,0.00,,---,0.00,128.00,VWS V14.00,2013-01-21 20:15:00,
2013-01-21 15:20:00,26.5,19.0,29.95,West,279,13.0,21.0,73,0.00,,---,0.00,83.00,VWS V14.00,2013-01-21 20:20:00,
2013-01-21 15:25:00,26.5,19.0,29.95,WSW,252,8.0,21.0,73,0.00,,---,0.00,93.00,VWS V14.00,2013-01-21 20:25:00,
2013-01-21 15:30:00,26.5,18.7,29.95,WSW,252,8.0,21.0,72,0.00,,---,0.00,83.00,VWS V14.00,2013-01-21 20:30:00,
2013-01-21 15:35:00,26.3,18.2,29.96,West,280,15.0,20.0,71,0.00,,---,0.00,98.00,VWS V14.00,2013-01-21 20:35:00,
2013-01-21 15:40:00,26.0,17.6,29.96,West,275,18.0,21.0,70,0.00,,---,0.00,102.00,VWS V14.00,2013-01-21 20:40:00,
2013-01-21 15:45:00,25.8,17.4,29.96,WNW,292,11.0,21.0,70,0.00,,---,0.00,97.00,VWS V14.00,2013-01-21 20:45:00,
2013-01-21 15:50:00,25.9,18.1,29.96,West,270,11.0,22.0,72,0.00,,---,0.00,100.00,VWS V14.00,2013-01-21 20:50:00,
2013-01-21 15:55:00,26.2,17.8,29.96,West,275,7.0,22.0,70,0.00,,---,0.00,190.00,VWS V14.00,2013-01-21 20:55:00,
2013-01-21 16:00:00,26.4,18.0,29.96,West,265,8.0,22.0,70,0.00,,---,0.00,163.00,VWS V14.00,2013-01-21 21:00:00,
2013-01-21 16:05:00,26.3,17.2,29.97,West,276,13.0,18.0,68,0.00,,---,0.00,142.00,VWS V14.00,2013-01-21 21:05:00,
2013-01-21 16:10:00,26.3,16.5,29.97,WSW,255,8.0,18.0,66,0.00,,---,0.00,62.00,VWS V14.00,2013-01-21 21:10:00,
2013-01-21 16:15:00,26.5,15.6,29.97,West,260,11.0,18.0,63,0.00,,---,0.00,49.00,VWS V14.00,2013-01-21 21:15:00,
2013-01-21 16:20:00,26.5,14.5,29.97,WSW,254,19.0,19.0,60,0.00,,---,0.00,86.00,VWS V14.00,2013-01-21 21:20:00,
2013-01-21 16:25:00,26.3,14.7,29.97,West,276,12.0,21.0,61,0.00,,---,0.00,105.00,VWS V14.00,2013-01-21 21:25:00,
2013-01-21 16:30:00,26.3,15.4,29.97,West,263,8.0,21.0,63,0.00,,---,0.00,70.00,VWS V14.00,2013-01-21 21:30:00,
2013-01-21 16:36:00,25.8,15.3,29.97,WNW,284,9.0,20.0,64,0.00,,---,0.00,30.00,VWS V14.00,2013-01-21 21:36:00,
2013-01-21 16:41:00,25.3,14.8,29.98,West,279,19.0,20.0,64,0.00,,---,0.00,35.00,VWS V14.00,2013-01-21 21:41:00,
2013-01-21 16:46:00,25.2,14.8,29.98,West,264,14.0,20.0,64,0.00,,---,0.00,47.00,VWS V14.00,2013-01-21 21:46:00,
2013-01-21 16:51:00,25.2,14.0,29.98,West,281,14.0,20.0,62,0.00,,---,0.00,25.00,VWS V14.00,2013-01-21 21:51:00,
2013-01-21 16:56:00,24.9,13.7,29.98,West,273,12.0,20.0,62,0.00,,---,0.00,25.00,VWS V14.00,2013-01-21 21:56:00,
2013-01-21 17:00:00,24.8,13.6,29.98,WNW,283,12.0,20.0,62,0.00,,---,0.00,21.00,VWS V14.00,2013-01-21 22:00:00,
2013-01-21 17:01:00,24.8,13.6,29.98,WNW,284,15.0,20.0,62,0.00,,---,0.00,21.00,VWS V14.00,2013-01-21 22:01:00,
2013-01-21 17:06:00,24.8,13.3,29.98,West,273,8.0,18.0,61,0.00,,---,0.00,25.00,VWS V14.00,2013-01-21 22:06:00,
2013-01-21 17:11:00,24.7,13.2,29.99,West,269,12.0,18.0,61,0.00,,---,0.00,14.00,VWS V14.00,2013-01-21 22:11:00,
2013-01-21 17:16:00,24.7,13.6,29.99,West,261,12.0,18.0,62,0.00,,---,0.00,7.00,VWS V14.00,2013-01-21 22:16:00,
2013-01-21 17:21:00,24.7,13.2,29.99,West,263,10.0,18.0,61,0.00,,---,0.00,5.00,VWS V14.00,2013-01-21 22:21:00,
2013-01-21 17:26:00,24.6,13.4,29.99,West,265,4.0,18.0,62,0.00,,---,0.00,0.00,VWS V14.00,2013-01-21 22:26:00,
2013-01-21 17:30:00,24.5,13.4,29.99,WNW,284,8.0,18.0,62,0.00,,---,0.00,0.00,VWS V14.00,2013-01-21 22:30:00,
2013-01-21 17:31:00,24.5,13.4,29.99,WNW,284,8.0,18.0,62,0.00,,---,0.00,0.00,VWS V14.00,2013-01-21 22:31:00,
2013-01-21 17:36:00,24.3,14.2,29.99,WNW,289,6.0,16.0,65,0.00,,---,0.00,0.00,VWS V14.00,2013-01-21 22:36:00,
2013-01-21 17:41:00,24.1,14.7,29.99,WNW,286,9.0,17.0,67,0.00,,---,0.00,0.00,VWS V14.00,2013-01-21 22:41:00,
2013-01-21 17:46:00,23.8,15.5,29.99,West,271,21.0,21.0,70,0.00,,---,0.00,0.00,VWS V14.00,2013-01-21 22:46:00,
2013-01-21 17:51:00,23.5,15.5,30.00,WNW,299,13.0,21.0,71,0.00,,---,0.00,0.00,VWS V14.00,2013-01-21 22:51:00,
2013-01-21 17:56:00,23.3,15.9,30.00,West,273,13.0,21.0,73,0.00,,---,0.00,0.00,VWS V14.00,2013-01-21 22:56:00,
2013-01-21 18:00:00,22.1,14.8,30.01,West,270,15.0,19.0,73,0.00,,---,0.00,0.00,VWS V14.00,2013-01-21 23:00:00,
2013-01-21 18:01:00,23.0,15.6,30.00,West,269,7.0,8.0,73,0.00,,---,0.00,0.00,VWS V14.00,2013-01-21 23:01:00,
2013-01-21 18:06:00,22.6,15.3,30.00,West,277,13.0,17.0,73,0.00,,---,0.00,0.00,VWS V14.00,2013-01-21 23:06:00,
2013-01-21 18:11:00,22.4,14.8,30.00,WSW,250,6.0,19.0,72,0.00,,---,0.00,0.00,VWS V14.00,2013-01-21 23:11:00,
2013-01-21 18:16:00,22.4,14.8,30.01,West,265,4.0,19.0,72,0.00,,---,0.00,0.00,VWS V14.00,2013-01-21 23:16:00,
2013-01-21 18:21:00,22.2,14.9,30.01,West,265,10.0,19.0,73,0.00,,---,0.00,0.00,VWS V14.00,2013-01-21 23:21:00,
2013-01-21 18:26:00,22.2,14.9,30.01,West,281,5.0,19.0,73,0.00,,---,0.00,0.00,VWS V14.00,2013-01-21 23:26:00,
2013-01-21 18:30:00,22.1,14.8,30.01,West,270,15.0,19.0,73,0.00,,---,0.00,0.00,VWS V14.00,2013-01-21 23:30:00,
2013-01-21 18:31:00,22.1,14.8,30.01,NW,311,11.0,15.0,73,0.00,,---,0.00,0.00,VWS V14.00,2013-01-21 23:31:00,
2013-01-21 18:36:00,22.1,14.5,30.02,West,277,8.0,15.0,72,0.00,,---,0.00,0.00,VWS V14.00,2013-01-21 23:36:00,
2013-01-21 18:41:00,22.0,14.4,30.02,WSW,246,12.0,15.0,72,0.00,,---,0.00,0.00,VWS V14.00,2013-01-21 23:41:00,
2013-01-21 18:46:00,21.9,14.0,30.02,WSW,250,11.0,24.0,71,0.00,,---,0.00,0.00,VWS V14.00,2013-01-21 23:46:00,
2013-01-21 18:51:00,21.7,14.1,30.02,WSW,246,11.0,24.0,72,0.00,,---,0.00,0.00,VWS V14.00,2013-01-21 23:51:00,
2013-01-21 18:56:00,21.6,14.6,30.02,West,267,8.0,24.0,74,0.00,,---,0.00,0.00,VWS V14.00,2013-01-21 23:56:00,
2013-01-21 19:00:00,21.5,15.1,30.02,West,266,11.0,24.0,76,0.00,,---,0.00,0.00,VWS V14.00,2013-01-22 00:00:00,
2013-01-21 19:01:00,21.5,15.1,30.02,West,265,12.0,13.0,76,0.00,,---,0.00,0.00,VWS V14.00,2013-01-22 00:01:00,
2013-01-21 19:06:00,21.3,14.6,30.03,West,267,8.0,13.0,75,0.00,,---,0.00,0.00,VWS V14.00,2013-01-22 00:06:00,
2013-01-21 19:11:00,21.2,13.9,30.02,WSW,244,13.0,22.0,73,0.00,,---,0.00,0.00,VWS V14.00,2013-01-22 00:11:00,
2013-01-21 19:16:00,21.0,13.4,30.03,West,281,8.0,22.0,72,0.00,,---,0.00,0.00,VWS V14.00,2013-01-22 00:16:00,
2013-01-21 19:21:00,21.0,13.1,30.03,WSW,257,8.0,22.0,71,0.00,,---,0.00,0.00,VWS V14.00,2013-01-22 00:21:00,
2013-01-21 19:26:00,21.1,12.5,30.03,WSW,254,11.0,22.0,69,0.00,,---,0.00,0.00,VWS V14.00,2013-01-22 00:26:00,
2013-01-21 19:30:00,21.1,11.9,30.03,West,263,11.0,22.0,67,0.00,,---,0.00,0.00,VWS V14.00,2013-01-22 00:30:00,
2013-01-21 19:31:00,21.1,11.9,30.03,West,268,14.0,17.0,67,0.00,,---,0.00,0.00,VWS V14.00,2013-01-22 00:31:00,
2013-01-21 19:36:00,21.1,11.9,30.03,West,266,19.0,31.0,67,0.00,,---,0.00,0.00,VWS V14.00,2013-01-22 00:36:00,
2013-01-21 19:41:00,20.5,11.6,30.04,WNW,296,13.0,31.0,68,0.00,,---,0.00,0.00,VWS V14.00,2013-01-22 00:41:00,
2013-01-21 19:46:00,19.9,12.0,30.04,West,269,11.0,31.0,71,0.00,,---,0.00,0.00,VWS V14.00,2013-01-22 00:46:00,
2013-01-21 19:51:00,19.5,11.6,30.04,West,266,15.0,31.0,71,0.00,,---,0.00,0.00,VWS V14.00,2013-01-22 00:51:00,
2013-01-21 19:56:00,19.4,10.9,30.04,West,271,16.0,31.0,69,0.00,,---,0.00,0.00,VWS V14.00,2013-01-22 00:56:00,
2013-01-21 20:00:00,19.4,10.6,30.04,West,275,13.0,31.0,68,0.00,,---,0.00,0.00,VWS V14.00,2013-01-22 01:00:00,
2013-01-21 20:01:00,19.4,10.6,30.04,West,269,10.0,14.0,68,0.00,,---,0.00,0.00,VWS V14.00,2013-01-22 01:01:00,
2013-01-21 20:06:00,19.3,9.8,30.04,West,269,10.0,23.0,66,0.00,,---,0.00,0.00,VWS V14.00,2013-01-22 01:06:00,
2013-01-21 20:11:00,19.2,9.4,30.04,West,280,15.0,23.0,65,0.00,,---,0.00,0.00,VWS V14.00,2013-01-22 01:11:00,
2013-01-21 20:16:00,19.0,9.2,30.04,West,270,12.0,23.0,65,0.00,,---,0.00,0.00,VWS V14.00,2013-01-22 01:16:00,
2013-01-21 20:22:00,18.8,9.0,30.04,WNW,283,8.0,23.0,65,0.00,,---,0.00,0.00,VWS V14.00,2013-01-22 01:22:00,
2013-01-21 20:27:00,18.5,10.0,30.05,NW,305,9.0,23.0,69,0.00,,---,0.00,0.00,VWS V14.00,2013-01-22 01:27:00,
2013-01-21 20:30:00,18.2,11.0,30.05,WNW,297,11.0,23.0,73,0.00,,---,0.00,0.00,VWS V14.00,2013-01-22 01:30:00,
2013-01-21 20:32:00,18.1,11.5,30.05,NW,312,11.0,11.0,75,0.00,,---,0.00,0.00,VWS V14.00,2013-01-22 01:32:00,
2013-01-21 20:37:00,17.6,12.2,30.05,West,277,9.0,16.0,79,0.00,,---,0.00,0.00,VWS V14.00,2013-01-22 01:37:00,
2013-01-21 20:42:00,17.3,12.5,30.05,WNW,298,2.0,16.0,81,0.00,,---,0.00,0.00,VWS V14.00,2013-01-22 01:42:00,
2013-01-21 20:47:00,17.1,12.6,30.05,NNW,327,5.0,16.0,82,0.00,,---,0.00,0.00,VWS V14.00,2013-01-22 01:47:00,
2013-01-21 20:52:00,16.7,11.6,30.06,WNW,283,6.0,18.0,80,0.00,,---,0.00,0.00,VWS V14.00,2013-01-22 01:52:00,
2013-01-21 20:57:00,16.5,11.4,30.06,West,281,9.0,18.0,80,0.00,,---,0.00,0.00,VWS V14.00,2013-01-22 01:57:00,
2013-01-21 21:00:00,16.3,10.9,30.06,WNW,284,7.0,18.0,79,0.00,,---,0.00,0.00,VWS V14.00,2013-01-22 02:00:00,
2013-01-21 21:02:00,16.2,10.6,30.06,West,278,8.0,9.0,78,0.00,,---,0.00,0.00,VWS V14.00,2013-01-22 02:02:00,
2013-01-21 21:07:00,16.2,10.3,30.06,WSW,254,10.0,18.0,77,0.00,,---,0.00,0.00,VWS V14.00,2013-01-22 02:07:00,
2013-01-21 21:12:00,16.1,10.2,30.06,West,277,11.0,18.0,77,0.00,,---,0.00,0.00,VWS V14.00,2013-01-22 02:12:00,
2013-01-21 21:17:00,15.9,10.0,30.07,WNW,288,5.0,18.0,77,0.00,,---,0.00,0.00,VWS V14.00,2013-01-22 02:17:00,
2013-01-21 21:22:00,15.9,9.7,30.07,West,271,4.0,18.0,76,0.00,,---,0.00,0.00,VWS V14.00,2013-01-22 02:22:00,
2013-01-21 21:27:00,15.9,9.7,30.07,WNW,282,5.0,18.0,76,0.00,,---,0.00,0.00,VWS V14.00,2013-01-22 02:27:00,
2013-01-21 21:30:00,16.0,9.2,30.07,West,270,6.0,18.0,74,0.00,,---,0.00,0.00,VWS V14.00,2013-01-22 02:30:00,
2013-01-21 21:32:00,16.0,9.2,30.07,West,279,6.0,9.0,74,0.00,,---,0.00,0.00,VWS V14.00,2013-01-22 02:32:00,
2013-01-21 21:37:00,16.1,8.7,30.07,West,281,6.0,9.0,72,0.00,,---,0.00,0.00,VWS V14.00,2013-01-22 02:37:00,
2013-01-21 21:42:00,16.3,8.6,30.07,WNW,283,7.0,14.0,71,0.00,,---,0.00,0.00,VWS V14.00,2013-01-22 02:42:00,
2013-01-21 21:47:00,16.4,8.3,30.07,West,268,8.0,14.0,70,0.00,,---,0.00,0.00,VWS V14.00,2013-01-22 02:47:00,
2013-01-21 21:52:00,16.4,8.0,30.07,West,267,6.0,14.0,69,0.00,,---,0.00,0.00,VWS V14.00,2013-01-22 02:52:00,
2013-01-21 21:57:00,16.3,8.2,30.07,West,279,8.0,14.0,70,0.00,,---,0.00,0.00,VWS V14.00,2013-01-22 02:57:00,
2013-01-21 22:00:00,16.3,8.2,30.07,West,269,1.0,14.0,70,0.00,,---,0.00,0.00,VWS V14.00,2013-01-22 03:00:00,
2013-01-21 22:02:00,16.4,8.3,30.07,West,271,6.0,6.0,70,0.00,,---,0.00,0.00,VWS V14.00,2013-01-22 03:02:00,
2013-01-21 22:07:00,16.4,8.7,30.07,West,263,6.0,6.0,71,0.00,,---,0.00,0.00,VWS V14.00,2013-01-22 03:07:00,
2013-01-21 22:12:00,16.4,8.3,30.08,West,281,6.0,12.0,70,0.00,,---,0.00,0.00,VWS V14.00,2013-01-22 03:12:00,
2013-01-21 22:17:00,16.2,8.5,30.08,West,279,11.0,13.0,71,0.00,,---,0.00,0.00,VWS V14.00,2013-01-22 03:17:00,
2013-01-21 22:22:00,15.8,8.1,30.08,West,277,7.0,13.0,71,0.00,,---,0.00,0.00,VWS V14.00,2013-01-22 03:22:00,
2013-01-21 22:27:00,15.7,8.0,30.08,West,259,6.0,13.0,71,0.00,,---,0.00,0.00,VWS V14.00,2013-01-22 03:27:00,
2013-01-21 22:30:00,15.8,8.7,30.08,West,268,3.0,13.0,73,0.00,,---,0.00,0.00,VWS V14.00,2013-01-22 03:30:00,
2013-01-21 22:32:00,15.8,8.7,30.08,West,279,11.0,11.0,73,0.00,,---,0.00,0.00,VWS V14.00,2013-01-22 03:32:00,
2013-01-21 22:37:00,15.6,9.7,30.08,West,275,8.0,12.0,77,0.00,,---,0.00,0.00,VWS V14.00,2013-01-22 03:37:00,
2013-01-21 22:42:00,15.3,10.2,30.08,West,263,2.0,12.0,80,0.00,,---,0.00,0.00,VWS V14.00,2013-01-22 03:42:00,
2013-01-21 22:47:00,15.0,10.5,30.08,West,261,6.0,12.0,82,0.00,,---,0.00,0.00,VWS V14.00,2013-01-22 03:47:00,
2013-01-21 22:52:00,14.9,10.4,30.08,WSW,251,4.0,12.0,82,0.00,,---,0.00,0.00,VWS V14.00,2013-01-22 03:52:00,
2013-01-21 22:57:00,14.9,10.7,30.08,West,277,8.0,12.0,83,0.00,,---,0.00,0.00,VWS V14.00,2013-01-22 03:57:00,
2013-01-21 23:00:00,14.9,10.7,30.08,West,270,5.0,12.0,83,0.00,,---,0.00,0.00,VWS V14.00,2013-01-22 04:00:00,
2013-01-21 23:02:00,14.9,10.7,30.08,West,269,3.0,5.0,83,0.00,,---,0.00,0.00,VWS V14.00,2013-01-22 04:02:00,
2013-01-21 23:07:00,14.9,10.9,30.08,West,274,9.0,11.0,84,0.00,,---,0.00,0.00,VWS V14.00,2013-01-22 04:07:00,
2013-01-21 23:12:00,14.8,11.4,30.08,WSW,257,11.0,16.0,86,0.00,,---,0.00,0.00,VWS V14.00,2013-01-22 04:12:00,
2013-01-21 23:17:00,14.5,10.8,30.08,West,271,11.0,24.0,85,0.00,,---,0.00,0.00,VWS V14.00,2013-01-22 04:17:00,
2013-01-21 23:22:00,14.2,10.5,30.09,West,281,12.0,24.0,85,0.00,,---,0.00,0.00,VWS V14.00,2013-01-22 04:22:00,
2013-01-21 23:27:00,13.9,10.2,30.09,WNW,289,12.0,24.0,85,0.00,,---,0.00,0.00,VWS V14.00,2013-01-22 04:27:00,
2013-01-21 23:30:00,13.7,10.0,30.09,West,275,8.0,24.0,85,0.00,,---,0.00,0.00,VWS V14.00,2013-01-22 04:30:00,
2013-01-21 23:32:00,13.7,10.0,30.09,NW,311,11.0,11.0,85,0.00,,---,0.00,0.00,VWS V14.00,2013-01-22 04:32:00,
2013-01-21 23:37:00,13.5,10.1,30.09,West,279,9.0,16.0,86,0.00,,---,0.00,0.00,VWS V14.00,2013-01-22 04:37:00,
2013-01-21 23:42:00,13.5,10.4,30.09,West,261,12.0,16.0,87,0.00,,---,0.00,0.00,VWS V14.00,2013-01-22 04:42:00,
2013-01-21 23:47:00,13.5,10.1,30.09,West,275,8.0,16.0,86,0.00,,---,0.00,0.00,VWS V14.00,2013-01-22 04:47:00,
2013-01-21 23:52:00,13.4,10.0,30.09,West,264,10.0,16.0,86,0.00,,---,0.00,0.00,VWS V14.00,2013-01-22 04:52:00,
2013-01-21 23:57:00,13.4,10.0,30.09,West,269,8.0,16.0,86,0.00,,---,0.00,0.00,VWS V14.00,2013-01-22 04:57:00,